Regional Weather Roundup
Issued by NWS Charleston, SC

Home | Current Version | Previous Version | Text Only | Print | Product List | Glossary On
Versions: 1 2 3 4 5 6 7 8 9 10 11 12 13 14 15 16 17 18 19 20 21 22 23 24 25 26 27 28 29 30 31 32 33 34 35 36 37 38 39 40 41 42 43 44 45 46 47 48 49 50
000
ASUS42 KCHS 140310
RWRCHS
REGIONAL WEATHER ROUNDUP
NATIONAL WEATHER SERVICE CHARLESTON SC
1100 PM EDT SUN JUL 13 2014

NOTE: "FAIR" INDICATES FEW OR NO CLOUDS BELOW 12,000 FEET WITH NO
SIGNIFICANT WEATHER AND/OR OBSTRUCTIONS TO VISIBILITY.

NOT ALL STATIONS ARE QUALITY CONTROLLED BY THE NATIONAL
WEATHER SERVICE. USE DATA WITH CAUTION...ESPECIALLY
DEWPOINT OBSERVATIONS.

SCZ027-030-031-034>040-042>050-140400-
...SOUTH CAROLINA...

CITY           SKY/WX    TMP DP  RH WIND       PRES   REMARKS
N CHARLESTON   PTCLDY    76  72  87 S3        30.08R
WATERFRONT PRK   N/A     79 N/A N/A SW3         N/A
FORT JOHNSON   NOT AVBL
MOUNT PLEASANT FAIR      73  73 100 CALM      30.08S
JOHNS ISLAND   CLEAR     75  68  78 CALM      30.08S
PINOPOLIS        N/A     79  73  83 S3        29.98F
MONCKS CORNER    N/A     77  75  94 S3        30.07S
SUMMERVILLE    FAIR      75  73  94 CALM      30.08S
BEAUFORT MCAS  PTCLDY    80  75  84 SW5       30.07S
BEAUFORT ARPT  FAIR      79  75  89 S3        30.07S
HILTON HEAD IS CLEAR     79  75  89 S5        30.09S
GEORGETOWN     NOT AVBL
WALTERBORO     MOCLDY    77 N/A N/A CALM      30.08S
ORANGEBURG     PTCLDY    78  71  79 S6        30.07R
BARNWELL       FAIR      79  73  83 S5        30.07S
AIKEN          FAIR      81  73  78 S10       30.10S
MANNING        FAIR      81  77  89 SW5       30.07S
KINGSTREE      NOT AVBL
COLUMBIA       PTCLDY    82  71  69 S6        30.05R
SUMTER         CLEAR     78  73  84 S2        30.05R
FLORENCE       CLEAR     78  72  81 S5        30.06R
MYRTLE BEACH   MOCLDY    79  72  78 S6        30.07R
N MYRTLE BEACH PTCLDY    80  72  76 S12       30.06S

$$

GAZ063-065-086>088-099>101-113>116-118-119-134-136>141-150-140400-
...GEORGIA...

CITY           SKY/WX    TMP DP  RH WIND       PRES   REMARKS
SAVANNAH ARPT  MOCLDY    78  74  87 CALM      30.09R
HUNTER AAF     CLEAR     79  75  89 S3        30.06S
FORT STEWART   CLEAR     76  74  95 CALM      30.08R
STATESBORO     NOT AVBL
SYLVANIA       CLEAR     77  76  96 CALM      30.09S
CLAXTON        FAIR      79  77  94 CALM      30.08S
THOMSON        PTCLDY    77  74  91 CALM      30.11R
AUGUSTA-BUSH   PTCLDY    79  72  79 SE7       30.05R
AUGUSTA-DANIEL PTCLDY    81  72  74 SE6       30.07R
SWAINSBORO     FAIR      82  77  83 S7        30.08R HX  91
VIDALIA          N/A     79  73  83 SE5       30.08R
ALMA           PTCLDY    80  74  81 S7        30.08R
WAYCROSS       PTCLDY    82  78  88 S7        30.09R HX  91
JESUP          NOT AVBL
BRUNSWICK      CLEAR     81  73  78 CALM      30.10R
SAINT SIMONS   PTCLDY    81  75  82 S10G17    30.09R

$$

SCZ027-028-034-036>038-045-046-048>050-GAZ119-141-140400-
...LAKE AND SUPPLEMENTAL COASTAL OBSERVATIONS...

STATION/POSITION TIME  TEMP    WIND        PRES    WAVE   SWELL
                       AIR SEA DIR/SP/G            HT/PER HT/PER/DIR
                 (UTC) (F)     (DEG/KT/KT) (MB)    (FT/S) (FT/S/D)
UPR LAKE MARION  NOT AVBL
WINYAH BAY       0200   79     190/  7     1018.0S
LAKE MURRAY      0200   84     180/  8/ 12 1016.9R
ACE BASIN NERRS  0200   78        CALM     1018.0S
FORT PULASKI     0300   81 78  170/  5/  8   N/A
SAPELO ISLAND    0200   81     170/ 11     1018.0S

$$

ANZ835-935-AMZ111-154-330-350-352-354-374-450-454-472-140400-
...C-MAN AND BUOY OBSERVATIONS...

STATION/POSITION TIME  TEMP    WIND        PRES    WAVE   SWELL
                       AIR SEA DIR/SP/G            HT/PER HT/PER/DIR
                 (UTC) (F)     (DEG/KT/KT) (MB)    (FT/S) (FT/S/D)
FOLLY BEACH CMAN 0200   79     230/  5/  6 1018.9R
BUOY 41004       0300   81 82  210/ 12/ 14 1018.1R   3/ 7   2/ 7
BUOY 41008       0300   82 84  180/ 14/ 16 1018.5R   3/ 8   2/120/ 8
5E ST. MARYS GA  0300      83                N/A     3/ 4
FRYING PAN BUOY  NOT AVBL
BUOY 41025       0300          VRB 14/ 16  1017.8F   2/ 7   2/140/ 7
CAPE LOOKOUT NC  0200   81     190/ 12/ 14 1018.0R
BUOY 41002       0205   81 83  200/ 10/ 12 1020.0    3/ 9   3/170/ 9
BUOY 41010       0300   83 84  140/ 14/ 16 1019.4R   3/ 8   3/130/ 8
BUOY 41012       NOT AVBL
ST AUGUSTINE FL  0300   80     200/  6/  7 1019.8R
CAPERS NEARSHORE 0200   80     230/ 10/ 12   N/A
FRIPP NEARSHORE  0200   81     220/ 12/ 14   N/A


$$


USA.gov is the U.S. government's official web portal to all federal, state and local government web resources and services.